FW5704 Weather Reports


Display with metric or nautical units.
time (UTC)temp
F
wind
direction
speed
MPH
gust
MPH
rain 1hr
in
rain 24hr
in
rain mn
in
humidity
%
barometer
mb
20260831053536 67 0 0.0 0.0 0.00 0.14 0.00 96 1023.1
20260831053102 67 0 0.0 0.0 0.00 0.14 0.00 96 1023.1
20260831052535 67 0 0.0 0.0 0.00 0.14 0.00 96 1023.1
20260831052036 67 0 0.0 0.0 0.00 0.14 0.00 96 1023.1
20260831051555 67 0 0.0 0.0 0.00 0.14 0.00 96 1023.0
20260831051033 67 0 0.0 0.0 0.00 0.14 0.00 95 1023.2
20260831050533 67 0 0.0 0.0 0.00 0.14 0.00 95 1023.1
20260831050110 67 0 0.0 0.0 0.00 0.14 0.00 95 1023.1
20260831045534 67 0 0.0 0.0 0.00 0.14 0.00 95 1023.0
20260831045034 67 0 0.0 0.0 0.00 0.14 0.00 95 1023.1
20260831044607 67 0 0.0 0.0 0.00 0.14 0.00 95 1023.1
20260831044034 67 0 0.0 0.0 0.00 0.14 0.00 95 1023.0
20260831043533 67 0 0.0 0.0 0.00 0.14 0.00 95 1023.0
20260831043047 67 0 0.0 0.0 0.00 0.14 0.00 95 1023.0
20260831042537 67 0 0.0 0.0 0.00 0.14 0.00 95 1023.2
20260831042034 67 0 0.0 0.0 0.00 0.14 0.00 95 1023.1
20260831041613 67 0 0.0 0.0 0.00 0.14 0.00 95 1023.2
20260831041033 67 0 0.0 0.0 0.00 0.14 0.00 95 1023.2
20260831040533 67 0 0.0 0.0 0.00 0.14 0.00 95 1023.1
20260831040050 67 0 0.0 0.0 0.00 0.14 0.00 95 1023.1
20260831035534 67 0 0.0 0.0 0.00 0.14 0.14 95 1023.1
20260831035032 67 0 0.0 0.0 0.00 0.14 0.14 95 1023.2
20260831034605 67 0 0.0 0.0 0.00 0.14 0.14 95 1023.3
20260831034033 67 0 0.0 0.0 0.00 0.14 0.14 95 1023.3
20260831033533 67 0 0.0 0.0 0.00 0.14 0.14 95 1023.4
20260831033104 67 0 0.0 0.0 0.00 0.14 0.14 95 1023.4
20260831032537 68 0 0.0 0.0 0.00 0.14 0.14 95 1023.5
20260831032036 68 0 0.0 0.0 0.00 0.14 0.14 95 1023.6
20260831031600 68 0 0.0 0.0 0.00 0.14 0.14 95 1023.5
20260831031033 68 0 0.0 0.0 0.00 0.14 0.14 95 1023.5
20260831030535 68 0 0.0 0.0 0.00 0.14 0.14 95 1023.6
20260831030058 68 0 0.0 0.0 0.00 0.14 0.14 95 1023.5
20260831025533 68 0 0.0 0.0 0.00 0.14 0.14 95 1023.6
20260831025034 68 0 0.0 0.0 0.00 0.14 0.14 95 1023.5
20260831024614 68 0 0.0 0.0 0.00 0.14 0.14 95 1023.6
20260831024034 68 0 0.0 0.0 0.00 0.14 0.14 95 1023.6
20260831023533 68 0 0.0 0.0 0.00 0.14 0.14 95 1023.5
20260831023057 68 0 0.0 0.0 0.00 0.14 0.14 95 1023.6
20260831022533 68 0 0.0 0.0 0.00 0.14 0.14 94 1023.5
20260831022033 68 0 0.0 0.0 0.00 0.14 0.14 94 1023.4
20260831021556 68 0 0.0 0.0 0.00 0.14 0.14 94 1023.5
20260831021033 68 0 0.0 0.0 0.00 0.14 0.14 95 1023.4
20260831020536 68 0 0.0 0.0 0.00 0.14 0.14 95 1023.4
20260831020106 69 0 0.0 0.0 0.00 0.14 0.14 95 1023.2
20260831015532 69 0 0.0 0.0 0.00 0.14 0.14 94 1023.1
20260831015032 69 0 0.0 0.0 0.00 0.14 0.14 94 1023.2
20260831014608 69 0 0.0 0.0 0.00 0.14 0.14 94 1023.2
20260831014032 69 0 0.0 0.0 0.00 0.14 0.14 94 1023.1
20260831013534 69 0 0.0 0.0 0.00 0.14 0.14 94 1023.2
20260831013058 69 0 0.0 0.0 0.00 0.14 0.14 94 1022.9
20260831012535 69 0 0.0 0.0 0.00 0.14 0.14 94 1022.9
20260831012036 69 0 0.0 0.0 0.00 0.14 0.14 94 1022.9
20260831011606 69 0 0.0 0.0 0.00 0.14 0.14 94 1022.9
20260831011032 69 0 0.0 0.0 0.00 0.14 0.14 94 1022.7
20260831010532 69 0 0.0 0.0 0.00 0.14 0.14 94 1022.7
20260831010053 69 0 0.0 0.0 0.00 0.14 0.14 94 1022.6
20260831005533 70 0 0.0 0.0 0.00 0.14 0.14 94 1022.6
20260831005033 70 0 0.0 0.0 0.00 0.14 0.14 94 1022.6
20260831004600 70 0 0.0 0.0 0.00 0.14 0.14 94 1022.6
20260831004034 70 0 0.0 0.0 0.00 0.14 0.14 94 1022.5
20260831003535 70 0 0.0 0.0 0.00 0.14 0.14 94 1022.4
20260831003104 70 0 0.0 0.0 0.00 0.14 0.14 94 1022.3
20260831002534 70 0 0.0 0.0 0.00 0.14 0.14 94 1022.3
20260831002033 70 0 0.0 0.0 0.00 0.14 0.14 93 1022.3
20260831001557 70 0 0.0 0.0 0.00 0.14 0.14 94 1022.3
20260831001036 70 0 0.0 0.0 0.00 0.14 0.14 94 1022.3
20260831000534 70 0 0.0 0.0 0.00 0.14 0.14 93 1022.3
20260830235535 71 0 0.0 0.0 0.00 0.14 0.14 93 1022.2
20260830235037 71 0 0.0 0.0 0.00 0.14 0.14 93 1022.2
20260830234607 71 0 0.0 0.0 0.00 0.14 0.14 93 1022.2
20260830234032 71 0 0.0 0.0 0.00 0.14 0.14 93 1022.3
20260830233533 71 0 0.0 0.0 0.01 0.14 0.14 93 1022.2
20260830233058 71 0 0.0 0.0 0.01 0.14 0.14 93 1022.2
20260830232538 72 0 0.0 0.0 0.03 0.14 0.14 93 1022.2
20260830232033 72 0 0.0 0.0 0.06 0.14 0.14 93 1022.2
20260830231553 72 0 0.0 0.0 0.11 0.14 0.14 93 1022.2
20260830231037 72 0 0.0 2.0 0.11 0.14 0.14 92 1022.0
20260830230533 72 0 0.0 2.0 0.13 0.14 0.14 92 1022.2
20260830225532 72 324 0.0 2.0 0.14 0.14 0.14 92 1022.1
20260830225037 72 0 0.0 2.0 0.14 0.14 0.14 91 1022.1
20260830224553 73 0 1.0 3.0 0.14 0.14 0.14 89 1021.9
20260830224036 73 319 1.0 5.0 0.14 0.14 0.14 89 1022.0
20260830223533 74 338 1.0 5.0 0.13 0.13 0.13 88 1022.1
20260830223050 75 315 2.0 5.0 0.13 0.13 0.13 86 1022.2
20260830222532 76 343 2.0 5.0 0.11 0.11 0.11 84 1022.3
20260830222034 77 5 3.0 5.0 0.08 0.08 0.08 85 1022.3
20260830221557 78 352 1.0 3.0 0.03 0.03 0.03 83 1022.3
20260830221033 80 0 0.0 3.0 0.02 0.02 0.02 81 1022.3
20260830220533 81 0 1.0 3.0 0.01 0.01 0.01 78 1022.1
20260830220101 82 305 0.0 2.0 0.00 0.00 0.00 74 1022.0
20260830215534 82 0 0.0 2.0 0.00 0.00 0.00 74 1022.0
20260830215034 82 0 0.0 2.0 0.00 0.00 0.00 74 1022.0
20260830214603 82 0 0.0 4.0 0.00 0.00 0.00 73 1021.9
20260830214032 82 0 0.0 5.0 0.00 0.00 0.00 69 1021.9
20260830213533 83 209 1.0 5.0 0.00 0.00 0.00 67 1021.8
20260830213049 83 227 1.0 5.0 0.00 0.00 0.00 66 1021.8
20260830212532 83 262 1.0 4.0 0.00 0.00 0.00 67 1021.8
20260830212032 82 213 1.0 4.0 0.00 0.00 0.00 67 1021.7
20260830211604 83 223 1.0 5.0 0.00 0.00 0.00 65 1021.7
20260830211032 83 0 1.0 5.0 0.00 0.00 0.00 65 1021.8
20260830210534 84 227 1.0 5.0 0.00 0.00 0.00 65 1021.8
20260830210058 84 217 2.0 5.0 0.00 0.00 0.00 65 1021.7
20260830205532 84 0 0.0 4.0 0.00 0.00 0.00 64 1021.7
20260830205036 84 214 2.0 7.0 0.00 0.00 0.00 63 1021.8
20260830204553 84 207 3.0 7.0 0.00 0.00 0.00 62 1021.8
20260830204033 84 205 2.0 5.0 0.00 0.00 0.00 67 1022.0
20260830203533 83 210 1.0 6.0 0.00 0.00 0.00 67 1022.0
20260830203050 83 0 1.0 6.0 0.00 0.00 0.00 70 1022.0
20260830202536 83 213 0.0 5.0 0.00 0.00 0.00 68 1022.0
20260830202033 83 213 1.0 5.0 0.00 0.00 0.00 67 1022.1
20260830201613 83 0 1.0 3.0 0.00 0.00 0.00 65 1022.0
20260830201033 83 0 0.0 6.0 0.00 0.00 0.00 68 1022.1
20260830200532 83 224 1.0 6.0 0.00 0.00 0.00 67 1022.2
20260830200100 83 0 0.0 5.0 0.00 0.00 0.00 68 1022.2
20260830195533 83 201 1.0 5.0 0.00 0.00 0.00 68 1022.3
20260830195032 83 266 1.0 5.0 0.00 0.00 0.00 69 1022.4
20260830194558 83 275 0.0 5.0 0.00 0.00 0.00 71 1022.5
20260830194034 83 207 0.0 5.0 0.00 0.00 0.00 68 1022.4
20260830193533 83 210 1.0 5.0 0.00 0.00 0.00 65 1022.5
20260830193051 83 0 1.0 4.0 0.00 0.00 0.00 68 1022.6
20260830192533 83 207 1.0 4.0 0.00 0.00 0.00 68 1022.6
20260830192033 83 220 1.0 4.0 0.00 0.00 0.00 67 1022.7
20260830191558 83 0 0.0 4.0 0.00 0.00 0.00 65 1022.7
20260830191034 83 203 1.0 4.0 0.00 0.00 0.00 63 1022.8
20260830190534 83 209 1.0 7.0 0.00 0.00 0.00 65 1022.9
20260830190058 83 218 2.0 7.0 0.00 0.00 0.00 68 1023.1
20260830185534 82 0 1.0 5.0 0.00 0.00 0.00 69 1023.1
20260830185033 82 218 2.0 5.0 0.00 0.00 0.00 67 1023.1
20260830184557 82 217 0.0 3.0 0.00 0.00 0.00 71 1023.1
20260830184037 82 217 0.0 3.0 0.00 0.00 0.00 70 1023.1
20260830183534 82 0 0.0 3.0 0.00 0.00 0.00 72 1023.3
20260830183049 82 288 0.0 6.0 0.00 0.00 0.00 68 1023.3
20260830182534 82 0 0.0 6.0 0.00 0.00 0.00 66 1023.6
20260830182034 82 236 1.0 6.0 0.00 0.00 0.00 69 1023.7
20260830181603 82 253 1.0 5.0 0.00 0.00 0.00 70 1023.7
20260830181034 82 210 1.0 5.0 0.00 0.00 0.00 70 1023.7
20260830180534 82 203 1.0 3.0 0.00 0.00 0.00 70 1023.9
20260830180111 82 199 1.0 3.0 0.00 0.00 0.00 70 1023.9
20260830175534 81 0 0.0 4.0 0.00 0.00 0.00 75 1023.9
20260830175035 81 211 1.0 4.0 0.00 0.00 0.00 74 1023.8
20260830174606 81 0 2.0 4.0 0.00 0.00 0.00 71 1024.1
20260830174033 80 0 0.0 3.0 0.00 0.00 0.00 74 1024.1
20260830173533 80 0 0.0 4.0 0.00 0.00 0.00 72 1024.2
20260830173049 79 221 1.0 4.0 0.00 0.00 0.00 76 1024.2
20260830172534 79 235 1.0 3.0 0.00 0.00 0.00 76 1024.3
20260830172034 79 214 0.0 2.0 0.00 0.00 0.00 76 1024.4
20260830171621 80 197 0.0 3.0 0.00 0.00 0.00 75 1024.4
20260830171035 79 196 0.0 4.0 0.00 0.00 0.00 77 1024.5
20260830170534 79 221 0.0 4.0 0.00 0.00 0.00 78 1024.7
20260830170100 79 0 0.0 4.0 0.00 0.00 0.00 77 1024.6
20260830165534 79 215 0.0 4.0 0.00 0.00 0.00 78 1024.7
20260830165034 79 0 0.0 4.0 0.00 0.00 0.00 78 1024.7
20260830164552 79 217 1.0 4.0 0.00 0.00 0.00 76 1024.6
20260830164035 78 0 0.0 3.0 0.00 0.00 0.00 75 1024.7
20260830163534 78 0 1.0 3.0 0.00 0.00 0.00 78 1024.8
20260830163104 78 219 0.0 3.0 0.00 0.00 0.00 76 1024.8
20260830162536 78 0 0.0 3.0 0.00 0.00 0.00 77 1024.9
20260830162033 78 211 1.0 3.0 0.00 0.00 0.00 77 1024.9
20260830161604 78 0 0.0 4.0 0.00 0.00 0.00 77 1025.0
20260830161035 78 0 0.0 4.0 0.00 0.00 0.00 77 1025.0
20260830160534 79 185 0.0 5.0 0.00 0.00 0.00 77 1025.0
20260830160058 79 0 0.0 5.0 0.00 0.00 0.00 77 1025.1
20260830155534 78 0 0.0 3.0 0.00 0.00 0.00 76 1025.0
20260830155037 78 0 0.0 3.0 0.00 0.00 0.00 77 1025.0
20260830154555 77 0 0.0 4.0 0.00 0.00 0.00 78 1025.0
20260830154037 76 221 1.0 4.0 0.00 0.00 0.00 79 1024.9
20260830153534 76 214 1.0 4.0 0.00 0.00 0.00 79 1025.0
20260830153058 77 0 0.0 4.0 0.00 0.00 0.00 79 1025.2
20260830152533 77 209 1.0 4.0 0.00 0.00 0.00 78 1025.1
20260830152034 77 0 1.0 4.0 0.00 0.00 0.00 77 1025.0
20260830151616 77 206 0.0 4.0 0.00 0.00 0.00 78 1025.2
20260830151034 77 0 1.0 4.0 0.00 0.00 0.00 78 1025.1
20260830150534 76 218 0.0 4.0 0.00 0.00 0.00 79 1025.1
20260830150106 76 0 0.0 3.0 0.00 0.00 0.00 79 1025.2
20260830145533 76 213 0.0 3.0 0.00 0.00 0.00 80 1025.4
20260830145033 76 217 0.0 3.0 0.00 0.00 0.00 80 1025.3
20260830144605 76 0 0.0 4.0 0.00 0.00 0.00 79 1025.1
20260830144035 75 0 0.0 4.0 0.00 0.00 0.00 82 1025.1
20260830143534 75 212 0.0 3.0 0.00 0.00 0.00 82 1025.2
20260830143109 75 0 0.0 3.0 0.00 0.00 0.00 83 1025.2
20260830142537 74 0 0.0 3.0 0.00 0.00 0.00 83 1025.1
20260830142034 74 0 0.0 1.0 0.00 0.00 0.00 86 1025.2
20260830141555 73 0 0.0 3.0 0.00 0.00 0.00 86 1025.0
20260830141034 72 0 0.0 3.0 0.00 0.00 0.00 88 1025.2
20260830140534 72 0 0.0 2.0 0.00 0.00 0.00 89 1025.1
20260830140053 71 0 0.0 4.0 0.00 0.00 0.00 90 1025.1
20260830135535 71 0 0.0 4.0 0.00 0.00 0.00 91 1025.2
20260830135035 70 0 0.0 2.0 0.00 0.00 0.00 92 1025.0
20260830134558 69 0 0.0 2.0 0.00 0.00 0.00 94 1024.8
20260830134034 69 0 0.0 1.0 0.00 0.00 0.00 95 1024.7
20260830133534 68 0 0.0 1.0 0.00 0.00 0.00 96 1024.8
20260830133100 67 0 0.0 1.0 0.00 0.00 0.00 96 1024.7
20260830132534 67 0 0.0 2.0 0.00 0.00 0.00 96 1024.8
20260830132034 67 0 0.0 2.0 0.00 0.00 0.00 96 1024.7
20260830131608 67 0 0.0 1.0 0.00 0.00 0.00 96 1024.7
20260830131034 67 0 0.0 1.0 0.00 0.00 0.00 96 1024.6
20260830130534 66 0 0.0 1.0 0.00 0.00 0.00 96 1024.6
20260830130054 66 0 0.0 1.0 0.00 0.00 0.00 96 1024.6
20260830125533 66 0 0.0 1.0 0.00 0.00 0.00 96 1024.6
20260830125033 66 0 0.0 0.0 0.00 0.00 0.00 96 1024.5
20260830124601 66 0 0.0 0.0 0.00 0.00 0.00 96 1024.7
20260830124034 65 0 0.0 0.0 0.00 0.00 0.00 96 1024.5
20260830123533 65 0 0.0 0.0 0.00 0.00 0.00 96 1024.5
20260830123103 65 0 0.0 0.0 0.00 0.00 0.00 96 1024.5
20260830122534 65 0 0.0 0.0 0.00 0.00 0.00 96 1024.3
20260830122034 65 0 0.0 0.0 0.00 0.00 0.00 96 1024.3
20260830121558 65 0 0.0 0.0 0.00 0.00 0.00 96 1024.3
20260830121033 65 0 0.0 0.0 0.00 0.00 0.00 96 1024.2
20260830120536 64 0 0.0 0.0 0.00 0.00 0.00 95 1024.2
20260830120104 64 0 0.0 0.0 0.00 0.00 0.00 95 1024.0
20260830115536 64 0 0.0 0.0 0.00 0.00 0.00 95 1024.0
20260830115033 64 0 0.0 0.0 0.00 0.00 0.00 95 1023.9
20260830114601 64 0 0.0 0.0 0.00 0.00 0.00 95 1023.9
20260830114034 64 0 0.0 0.0 0.00 0.00 0.00 95 1024.0
20260830113535 64 0 0.0 0.0 0.00 0.00 0.00 95 1023.9
20260830113054 64 0 0.0 0.0 0.00 0.00 0.00 95 1023.8
20260830112534 64 0 0.0 0.0 0.00 0.00 0.00 95 1023.6
20260830112035 64 0 0.0 0.0 0.00 0.00 0.00 95 1023.7
20260830111551 64 0 0.0 0.0 0.00 0.00 0.00 95 1023.6
20260830111034 65 0 0.0 0.0 0.00 0.00 0.00 95 1023.5
20260830110533 65 0 0.0 0.0 0.00 0.00 0.00 95 1023.5
20260830110107 65 0 0.0 0.0 0.00 0.00 0.00 95 1023.5
20260830105534 65 0 0.0 0.0 0.00 0.00 0.00 95 1023.3
20260830105035 65 0 0.0 0.0 0.00 0.00 0.00 95 1023.2
20260830104555 65 0 0.0 0.0 0.00 0.00 0.00 95 1023.4
20260830104034 65 0 0.0 0.0 0.00 0.00 0.00 95 1023.3
20260830103535 65 0 0.0 2.0 0.00 0.00 0.00 95 1023.4
20260830103052 65 0 0.0 2.0 0.00 0.00 0.00 95 1023.3
20260830102533 65 0 0.0 0.0 0.00 0.00 0.00 95 1023.3
20260830102034 65 0 0.0 0.0 0.00 0.00 0.00 95 1023.2
20260830101551 65 0 0.0 0.0 0.00 0.00 0.00 95 1023.2
20260830101033 65 0 0.0 0.0 0.00 0.00 0.00 95 1023.3
20260830100534 65 0 0.0 0.0 0.00 0.00 0.00 95 1023.2
20260830100100 65 0 0.0 1.0 0.00 0.00 0.00 95 1023.4
20260830095533 65 0 0.0 1.0 0.00 0.00 0.00 95 1023.3
20260830095035 65 274 0.0 1.0 0.00 0.00 0.00 95 1023.2
20260830094610 65 0 0.0 0.0 0.00 0.00 0.00 95 1023.2
20260830094032 65 0 0.0 0.0 0.00 0.00 0.00 95 1023.2
20260830093532 65 0 0.0 0.0 0.00 0.00 0.00 94 1023.3
20260830093050 65 0 0.0 0.0 0.00 0.00 0.00 94 1023.2
20260830092536 66 0 0.0 0.0 0.00 0.00 0.00 94 1023.2
20260830092034 66 0 0.0 2.0 0.00 0.00 0.00 95 1023.2
20260830091557 66 0 0.0 2.0 0.00 0.00 0.00 95 1023.2
20260830091036 66 0 0.0 2.0 0.00 0.00 0.00 95 1023.2
20260830090534 66 0 0.0 1.0 0.00 0.00 0.00 95 1023.3
20260830090100 66 0 0.0 0.0 0.00 0.00 0.00 95 1023.2
20260830085533 66 0 0.0 0.0 0.00 0.00 0.00 95 1023.3
20260830085033 66 0 0.0 1.0 0.00 0.00 0.00 94 1023.3
20260830084546 66 0 0.0 1.0 0.00 0.00 0.00 94 1023.2
20260830084034 66 274 0.0 1.0 0.00 0.00 0.00 94 1023.2
20260830083534 66 0 0.0 0.0 0.00 0.00 0.00 94 1023.2
20260830083104 66 0 0.0 0.0 0.00 0.00 0.00 94 1023.2
20260830082536 66 0 0.0 0.0 0.00 0.00 0.00 94 1023.4
20260830082034 66 0 0.0 1.0 0.00 0.00 0.00 94 1023.4
20260830081553 66 0 0.0 2.0 0.00 0.00 0.00 94 1023.3
20260830081033 66 0 0.0 2.0 0.00 0.00 0.00 94 1023.4
20260830080533 67 274 0.0 2.0 0.00 0.00 0.00 94 1023.4
20260830080100 67 0 0.0 2.0 0.00 0.00 0.00 94 1023.3
20260830075534 67 0 0.0 2.0 0.00 0.00 0.00 94 1023.3
20260830075035 67 274 0.0 2.0 0.00 0.00 0.00 94 1023.2
20260830074604 67 0 0.0 1.0 0.00 0.00 0.00 94 1023.2
20260830074033 67 0 0.0 1.0 0.00 0.00 0.00 94 1023.1
20260830073534 67 0 0.0 1.0 0.00 0.00 0.00 94 1023.1
20260830073112 67 0 0.0 0.0 0.00 0.00 0.00 94 1023.3
20260830072533 67 0 0.0 0.0 0.00 0.00 0.00 94 1023.2
20260830072033 67 0 0.0 0.0 0.00 0.00 0.00 94 1023.2
20260830071555 67 0 0.0 0.0 0.00 0.00 0.00 94 1023.3
20260830071032 67 0 0.0 0.0 0.00 0.00 0.00 94 1023.2
20260830070534 67 0 0.0 0.0 0.00 0.00 0.00 94 1023.2
20260830070052 67 0 0.0 0.0 0.00 0.00 0.00 94 1023.2
20260830065534 67 0 0.0 0.0 0.00 0.00 0.00 94 1023.3
20260830065032 67 0 0.0 0.0 0.00 0.00 0.00 94 1023.2
20260830064557 67 0 0.0 0.0 0.00 0.00 0.00 94 1023.4
20260830064036 68 0 0.0 0.0 0.00 0.00 0.00 94 1023.4
20260830063533 68 0 0.0 0.0 0.00 0.00 0.00 94 1023.4
20260830063056 68 0 0.0 0.0 0.00 0.00 0.00 94 1023.5
20260830062534 68 0 0.0 0.0 0.00 0.00 0.00 94 1023.4
20260830062033 68 0 0.0 0.0 0.00 0.00 0.00 94 1023.7
20260830061632 68 0 0.0 0.0 0.00 0.00 0.00 94 1023.6
20260830061033 68 0 0.0 0.0 0.00 0.00 0.00 94 1023.6
20260830060537 68 0 0.0 0.0 0.00 0.00 0.00 94 1023.7
20260830060054 68 0 0.0 0.0 0.00 0.00 0.00 94 1023.8
20260830055533 68 0 0.0 2.0 0.00 0.00 0.00 94 1023.7
20260830055037 68 0 0.0 3.0 0.00 0.00 0.00 94 1023.8
20260830054556 68 0 0.0 3.0 0.00 0.00 0.00 94 1023.8
20260830054033 68 0 1.0 3.0 0.00 0.00 0.00 94 1023.7